Location: Ariel
(45.9570°N, 122.5700°W)
Time: 15:20:47
(UTC-07:00)

Transit 4A - Pass Details

Date: 28 July 2019
Orbit: 863 x 981 km, 66.8° (Epoch: 18 August)

Event Time Altitude Azimuth Distance (km) Brightness Sun altitude
Rises 11:04:32 0° 318° (NW) 3,655 10.6 51.6°
Reaches altitude 10° 11:07:33 10° 305° (NW) 2,687 10.1 52.1°
Maximum altitude 11:12:28 25° 253° (WSW) 1,805 9.5 52.8°
Drops below altitude 10° 11:17:15 10° 201° (SSW) 2,609 10.5 53.4°
Sets 11:20:10 0° 188° (S) 3,526 11.2 53.8°
